GW4746 Weather Reports


Display with metric or nautical units.
time (UTC)temp
F
wind
direction
speed
MPH
gust
MPH
rain 1hr
in
rain 24hr
in
rain mn
in
humidity
%
barometer
mb
20260507084525 52 86 0.0 2.0 0.00 0.00 0.00 79 1019.7
20260507083017 53 74 1.0 4.0 0.00 0.00 0.00 79 1019.3
20260507081518 53 114 0.0 4.0 0.00 0.00 0.00 79 1019.3
20260507080022 53 85 1.0 3.0 0.00 0.00 0.00 79 1019.3
20260507074526 53 72 0.0 2.0 0.00 0.00 0.00 79 1019.2
20260507073027 54 76 0.0 1.0 0.00 0.00 0.00 79 1019.2
20260507071520 54 103 0.0 3.0 0.00 0.00 0.00 78 1019.3
20260507070009 54 68 1.0 3.0 0.00 0.00 0.00 78 1019.1
20260507064512 54 116 0.0 1.0 0.00 0.00 0.00 77 1019.0
20260507061516 55 92 1.0 2.0 0.00 0.00 0.00 75 1018.5
20260507060021 55 75 0.0 2.0 0.00 0.00 0.00 74 1018.3
20260507054504 55 94 1.0 8.0 0.00 0.00 0.00 73 1017.9
20260507053009 56 82 1.0 3.0 0.00 0.00 0.00 73 1017.8
20260507051514 56 79 1.0 4.0 0.00 0.00 0.00 72 1017.7
20260507050026 56 91 1.0 5.0 0.00 0.00 0.00 72 1017.5
20260507044519 56 122 2.0 4.0 0.00 0.00 0.00 71 1017.2
20260507043022 57 91 1.0 5.0 0.00 0.00 0.00 70 1017.1
20260507041506 57 86 1.0 2.0 0.00 0.00 0.00 69 1017.1
20260507040026 57 79 0.0 3.0 0.00 0.00 0.00 69 1017.2
20260507034521 57 84 1.0 2.0 0.00 0.00 0.00 68 1017.2
20260507033027 58 93 1.0 3.0 0.00 0.00 0.00 67 1016.8
20260507031537 58 107 1.0 4.0 0.00 0.00 0.00 66 1016.5
20260507030010 58 77 1.0 3.0 0.00 0.00 0.00 65 1016.5
20260507024512 59 89 1.0 3.0 0.00 0.00 0.00 64 1016.2
20260507023020 59 89 0.0 3.0 0.00 0.00 0.00 63 1016.1
20260507021522 60 80 1.0 4.0 0.00 0.00 0.00 62 1016.0
20260507020026 61 102 1.0 3.0 0.00 0.00 0.00 61 1015.8
20260507014512 61 94 1.0 8.0 0.00 0.00 0.00 60 1015.7
20260507013036 62 120 2.0 7.0 0.00 0.00 0.00 59 1015.4
20260507011529 63 110 3.0 6.0 0.00 0.00 0.00 56 1015.2
20260507010025 64 84 3.0 7.0 0.00 0.00 0.00 55 1015.1
20260507004525 65 88 1.0 7.0 0.00 0.00 0.00 54 1015.1
20260507003014 66 83 1.0 6.0 0.00 0.00 0.00 52 1014.9
20260507001525 67 341 2.0 6.0 0.00 0.00 0.00 51 1014.7
20260507000020 67 105 2.0 5.0 0.00 0.00 0.00 51 1014.7
20260506234526 68 39 1.0 5.0 0.00 0.00 0.00 51 1014.7
20260506233028 68 47 1.0 4.0 0.00 0.00 0.00 51 1014.7
20260506231513 68 337 2.0 6.0 0.00 0.00 0.00 50 1014.7
20260506230018 68 68 1.0 8.0 0.00 0.00 0.00 51 1014.5
20260506224520 68 4 2.0 7.0 0.00 0.00 0.00 49 1014.3
20260506223026 68 328 3.0 6.0 0.00 0.00 0.00 48 1014.1
20260506221526 68 32 2.0 9.0 0.00 0.00 0.00 49 1014.1
20260506220016 69 42 3.0 6.0 0.00 0.00 0.00 46 1014.0
20260506214518 69 276 1.0 7.0 0.00 0.00 0.00 48 1014.0
20260506213004 69 328 1.0 6.0 0.00 0.00 0.00 49 1014.0
20260506211512 70 323 2.0 4.0 0.00 0.00 0.00 46 1014.1
20260506210017 70 83 2.0 5.0 0.00 0.00 0.00 47 1014.2
20260506204518 70 133 2.0 6.0 0.00 0.00 0.00 46 1014.1
20260506203019 70 110 1.0 5.0 0.00 0.00 0.00 45 1014.2
20260506201508 70 60 1.0 8.0 0.00 0.00 0.00 47 1014.4
20260506200008 69 327 2.0 5.0 0.00 0.00 0.00 48 1014.6
20260506194514 68 72 1.0 4.0 0.00 0.00 0.00 49 1014.6
20260506193020 68 4 2.0 4.0 0.00 0.00 0.00 48 1014.8
20260506191518 67 21 1.0 5.0 0.00 0.00 0.00 51 1015.0
20260506190006 66 75 2.0 7.0 0.00 0.00 0.00 52 1015.2
20260506184508 66 350 2.0 6.0 0.00 0.00 0.00 53 1015.5
20260506183016 64 91 2.0 5.0 0.00 0.00 0.00 54 1015.9
20260506181522 63 345 2.0 7.0 0.00 0.00 0.00 56 1016.0
20260506180028 62 349 2.0 7.0 0.00 0.00 0.00 58 1016.0
20260506174510 60 359 4.0 9.0 0.00 0.00 0.00 59 1016.2
20260506173018 61 28 2.0 7.0 0.00 0.00 0.00 59 1016.4
20260506171519 60 46 3.0 7.0 0.00 0.00 0.00 60 1016.1
20260506170022 60 337 4.0 7.0 0.00 0.00 0.00 62 1016.2
20260506164524 57 323 4.0 9.0 0.00 0.00 0.00 68 1016.4
20260506163014 56 283 2.0 6.0 0.00 0.00 0.00 70 1016.2
20260506161515 54 338 2.0 8.0 0.00 0.00 0.00 74 1016.0
20260506160021 53 13 2.0 6.0 0.00 0.00 0.00 76 1016.1
20260506154526 53 70 2.0 5.0 0.00 0.00 0.00 76 1016.0
20260506153026 52 321 3.0 10.0 0.00 0.00 0.00 78 1015.9
20260506151528 52 307 4.0 12.0 0.00 0.00 0.00 79 1015.8
20260506150015 51 288 4.0 9.0 0.00 0.00 0.00 79 1015.9
20260506144518 52 34 2.0 5.0 0.00 0.00 0.00 79 1015.9
20260506143026 52 96 1.0 5.0 0.00 0.00 0.00 79 1016.2
20260506141530 51 131 1.0 6.0 0.00 0.00 0.00 79 1015.9
20260506140029 51 49 0.0 5.0 0.00 0.00 0.00 80 1016.1
20260506134516 51 146 0.0 5.0 0.00 0.00 0.00 80 1016.1
20260506133019 51 88 1.0 5.0 0.00 0.00 0.00 80 1015.7
20260506131530 51 9 2.0 5.0 0.00 0.00 0.00 79 1015.9
20260506130008 51 67 2.0 5.0 0.00 0.00 0.00 79 1015.3
20260506124514 51 120 2.0 4.0 0.00 0.00 0.00 79 1015.4
20260506123018 51 87 1.0 3.0 0.00 0.00 0.00 79 1015.3
20260506121520 51 84 0.0 5.0 0.00 0.00 0.00 79 1014.3
20260506120027 52 287 2.0 8.0 0.00 0.00 0.00 79 1013.8
20260506114508 52 345 3.0 6.0 0.00 0.00 0.00 79 1013.4
20260506113014 52 241 1.0 7.0 0.00 0.00 0.00 79 1013.1
20260506111522 52 354 3.0 7.0 0.00 0.00 0.00 79 1013.4
20260506110024 52 318 1.0 7.0 0.00 0.00 0.00 79 1013.3
20260506104528 52 332 2.0 8.0 0.00 0.00 0.00 79 1013.1
20260506103011 52 36 1.0 5.0 0.00 0.00 0.00 80 1013.2
20260506101527 52 333 2.0 6.0 0.00 0.00 0.00 80 1013.2
20260506100022 52 18 1.0 4.0 0.00 0.00 0.00 80 1012.8
20260506094525 52 317 0.0 4.0 0.00 0.00 0.00 80 1012.4
20260506093038 52 110 0.0 3.0 0.00 0.00 0.00 81 1012.2
20260506091526 52 63 0.0 3.0 0.00 0.00 0.00 82 1012.3
20260506090015 52 98 0.0 4.0 0.00 0.00 0.00 82 1012.1